When you browse on this site, cookies collect data to enhance your experience and personalize the content and advertising you see.
Visit our Privacy Policy to learn more. By continuing to use the site, you agree to this use of cookies and data.
  • In Portugal
  • List of Countries
  • For 7 days
  • Water Temperature
  • Weather Map
  • Weather Widgets
  • user-avatar
    Login

    Hourly Weather Amsar

    Today, 23 September, Monday

    Time Temperature Precipitation Wind Pressure Humidity
    00:00 +5°C° 0 mm 2 mps 638 mmHg 58%
    01:00 +5°C° 0 mm 2 mps 638 mmHg 58%
    02:00 +5°C° 0 mm 2 mps 637 mmHg 58%
    03:00 +5°C° 0 mm 2 mps 637 mmHg 58%
    04:00 +6°C° 0 mm 2 mps 637 mmHg 57%
    05:00 +7°C° 0 mm 1 mps 637 mmHg 55%
    06:00 +7°C° 0 mm 1 mps 637 mmHg 54%
    07:00 +9°C° 0 mm 1 mps 638 mmHg 52%
    08:00 +12°C° 0 mm 2 mps 639 mmHg 50%
    09:00 +14°C° 0 mm 2 mps 640 mmHg 46%
    10:00 +15°C° 0 mm 2 mps 640 mmHg 46%
    11:00 +15°C° 0 mm 2 mps 640 mmHg 45%
    12:00 +16°C° 0 mm 3 mps 640 mmHg 45%
    13:00 +16°C° 0 mm 3 mps 639 mmHg 45%
    14:00 +16°C° 0 mm 2 mps 639 mmHg 46%
    15:00 +16°C° 0 mm 2 mps 639 mmHg 46%
    16:00 +14°C° 0 mm 2 mps 638 mmHg 55%
    17:00 +11°C° 0 mm 1 mps 637 mmHg 65%
    18:00 +9°C° 0 mm 1 mps 636 mmHg 74%
    19:00 +9°C° 0 mm 1 mps 637 mmHg 69%
    20:00 +8°C° 0 mm 1 mps 637 mmHg 64%
    21:00 +8°C° 0 mm 1 mps 637 mmHg 59%
    22:00 +8°C° 0 mm 1 mps 637 mmHg 59%
    23:00 +8°C° 0 mm 1 mps 637 mmHg 59%

    Tomorrow, 24 September, Tuesday

    Time Temperature Precipitation Wind Pressure Humidity
    00:00 +8°C° 0 mm 1 mps 637 mmHg 60%
    01:00 +8°C° 0 mm 1 mps 637 mmHg 60%
    02:00 +8°C° 0 mm 1 mps 637 mmHg 60%
    03:00 +7°C° 0 mm 2 mps 637 mmHg 60%
    04:00 +8°C° 0 mm 1 mps 637 mmHg 61%
    05:00 +8°C° 0 mm 1 mps 637 mmHg 62%
    06:00 +8°C° 0 mm 1 mps 637 mmHg 63%
    07:00 +10°C° 0 mm 2 mps 638 mmHg 59%
    08:00 +13°C° 0 mm 2 mps 639 mmHg 55%
    09:00 +15°C° 0 mm 2 mps 640 mmHg 51%
    10:00 +16°C° 0 mm 2 mps 640 mmHg 50%
    11:00 +17°C° 0 mm 3 mps 639 mmHg 49%
    12:00 +18°C° 0 mm 3 mps 639 mmHg 48%
    13:00 +18°C° 0 mm 3 mps 639 mmHg 49%
    14:00 +18°C° 0 mm 3 mps 639 mmHg 50%
    15:00 +17°C° 0 mm 3 mps 639 mmHg 51%
    16:00 +15°C° 0 mm 2 mps 638 mmHg 59%
    17:00 +13°C° 0 mm 1 mps 637 mmHg 68%
    18:00 +11°C° 0 mm 1 mps 636 mmHg 77%
    19:00 +11°C° 0 mm 1 mps 636 mmHg 73%
    20:00 +11°C° 0 mm 1 mps 636 mmHg 68%
    21:00 +10°C° 0 mm 1 mps 637 mmHg 63%
    22:00 +10°C° 0 mm 1 mps 636 mmHg 65%
    23:00 +9°C° 0 mm 2 mps 636 mmHg 66%

    Day after tomorrow, 25 September, Wednesday

    Time Temperature Precipitation Wind Pressure Humidity
    00:00 +9°C° 0 mm 2 mps 636 mmHg 67%
    01:00 +9°C° 0 mm 2 mps 636 mmHg 67%
    02:00 +9°C° 0 mm 2 mps 635 mmHg 68%
    03:00 +9°C° 0 mm 2 mps 635 mmHg 68%
    04:00 +9°C° 0 mm 2 mps 635 mmHg 66%
    05:00 +9°C° 0 mm 2 mps 635 mmHg 64%
    06:00 +9°C° 0 mm 2 mps 635 mmHg 62%
    07:00 +13°C° 0 mm 2 mps 637 mmHg 56%
    08:00 +15°C° 0 mm 2 mps 638 mmHg 49%
    09:00 +18°C° 0 mm 2 mps 639 mmHg 43%
    10:00 +19°C° 0 mm 2 mps 639 mmHg 43%
    11:00 +19°C° 0 mm 3 mps 639 mmHg 43%
    12:00 +20°C° 0 mm 3 mps 639 mmHg 44%
    13:00 +20°C° 0 mm 3 mps 639 mmHg 44%
    14:00 +20°C° 0 mm 3 mps 639 mmHg 44%
    15:00 +19°C° 0 mm 3 mps 639 mmHg 45%
    16:00 +17°C° 0 mm 3 mps 638 mmHg 53%
    17:00 +15°C° 0 mm 2 mps 638 mmHg 62%
    18:00 +13°C° 0 mm 2 mps 637 mmHg 71%
    19:00 +13°C° 0 mm 1 mps 637 mmHg 70%
    20:00 +12°C° 0 mm 1 mps 637 mmHg 70%
    21:00 +12°C° 0 mm 1 mps 638 mmHg 70%
    22:00 +12°C° 0 mm 1 mps 638 mmHg 68%
    23:00 +12°C° 0 mm 1 mps 638 mmHg 66%

    26 September, Thursday

    Time Temperature Precipitation Wind Pressure Humidity
    00:00 +12°C° 0 mm 1 mps 638 mmHg 64%
    01:00 +12°C° 0 mm 1 mps 637 mmHg 65%
    02:00 +12°C° 0 mm 1 mps 637 mmHg 65%
    03:00 +11°C° 0 mm 1 mps 637 mmHg 66%
    04:00 +11°C° 0 mm 1 mps 637 mmHg 67%
    05:00 +10°C° 0 mm 2 mps 637 mmHg 68%
    06:00 +10°C° 0 mm 2 mps 637 mmHg 69%
    07:00 +13°C° 0 mm 2 mps 638 mmHg 63%
    08:00 +16°C° 0 mm 2 mps 639 mmHg 58%
    09:00 +18°C° 0 mm 2 mps 640 mmHg 53%
    10:00 +19°C° 0 mm 3 mps 640 mmHg 50%
    11:00 +20°C° 0 mm 3 mps 640 mmHg 47%
    12:00 +21°C° 0 mm 4 mps 640 mmHg 44%
    13:00 +21°C° 0 mm 4 mps 639 mmHg 43%
    14:00 +21°C° 0 mm 4 mps 639 mmHg 42%
    15:00 +21°C° 0 mm 4 mps 639 mmHg 41%
    16:00 +19°C° 0 mm 3 mps 638 mmHg 49%
    17:00 +17°C° 0 mm 2 mps 637 mmHg 56%
    18:00 +15°C° 0 mm 1 mps 637 mmHg 63%
    19:00 +14°C° 0 mm 1 mps 637 mmHg 65%
    20:00 +14°C° 0 mm 1 mps 637 mmHg 66%
    21:00 +13°C° 0 mm 1 mps 637 mmHg 67%
    22:00 +13°C° 0 mm 1 mps 637 mmHg 70%
    23:00 +13°C° 0 mm 2 mps 637 mmHg 74%

    27 September, Friday

    Time Temperature Precipitation Wind Pressure Humidity
    00:00 +13°C° 0 mm 2 mps 637 mmHg 77%
    01:00 +12°C° 0 mm 2 mps 637 mmHg 77%
    02:00 +12°C° 0 mm 2 mps 637 mmHg 77%
    03:00 +12°C° 0 mm 1 mps 636 mmHg 77%
    04:00 +12°C° 0 mm 1 mps 636 mmHg 76%
    05:00 +12°C° 0 mm 2 mps 636 mmHg 76%
    06:00 +12°C° 0 mm 2 mps 637 mmHg 75%
    07:00 +14°C° 0 mm 2 mps 637 mmHg 69%
    08:00 +17°C° 0 mm 2 mps 638 mmHg 63%
    09:00 +19°C° 0 mm 2 mps 639 mmHg 57%
    10:00 +20°C° 0 mm 3 mps 639 mmHg 55%
    11:00 +20°C° 0 mm 3 mps 639 mmHg 52%
    12:00 +21°C° 0 mm 3 mps 639 mmHg 50%
    13:00 +21°C° 0 mm 3 mps 639 mmHg 50%
    14:00 +21°C° 0 mm 3 mps 638 mmHg 50%
    15:00 +21°C° 0 mm 3 mps 638 mmHg 50%
    16:00 +19°C° 0 mm 2 mps 637 mmHg 57%
    17:00 +17°C° 0 mm 2 mps 637 mmHg 65%
    18:00 +15°C° 0 mm 1 mps 636 mmHg 72%
    19:00 +15°C° 0 mm 1 mps 636 mmHg 72%
    20:00 +15°C° 0 mm 1 mps 636 mmHg 72%
    21:00 +14°C° 0 mm 1 mps 637 mmHg 72%
    22:00 +14°C° 0 mm 1 mps 636 mmHg 75%
    23:00 +14°C° 0 mm 1 mps 636 mmHg 78%

    28 September, Saturday

    Time Temperature Precipitation Wind Pressure Humidity
    00:00 +13°C° 0 mm 1 mps 636 mmHg 81%
    01:00 +13°C° 0 mm 1 mps 636 mmHg 81%
    02:00 +13°C° 0 mm 1 mps 636 mmHg 81%
    03:00 +13°C° 0 mm 2 mps 635 mmHg 80%
    04:00 +13°C° 0 mm 2 mps 635 mmHg 80%
    05:00 +13°C° 0 mm 2 mps 635 mmHg 79%
    06:00 +13°C° 0 mm 2 mps 635 mmHg 79%
    07:00 +15°C° 0 mm 2 mps 635 mmHg 71%
    08:00 +17°C° 0 mm 3 mps 636 mmHg 63%
    09:00 +19°C° 0 mm 3 mps 637 mmHg 55%
    10:00 +19°C° 0.1 mm 3 mps 637 mmHg 58%
    11:00 +19°C° 0.1 mm 4 mps 637 mmHg 61%
    12:00 +19°C° 0.1 mm 4 mps 637 mmHg 64%
    13:00 +17°C° 0.3 mm 3 mps 637 mmHg 70%
    14:00 +16°C° 0.3 mm 3 mps 636 mmHg 75%
    15:00 +15°C° 0.3 mm 2 mps 636 mmHg 81%
    16:00 +14°C° 0.1 mm 2 mps 636 mmHg 83%
    17:00 +13°C° 0.1 mm 1 mps 636 mmHg 84%
    18:00 +12°C° 0.1 mm 1 mps 636 mmHg 85%
    19:00 +12°C° 0 mm 1 mps 636 mmHg 85%
    20:00 +12°C° 0 mm 1 mps 637 mmHg 85%
    21:00 +11°C° 0 mm 1 mps 637 mmHg 84%
    22:00 +11°C° 0 mm 1 mps 637 mmHg 85%
    23:00 +10°C° 0 mm 1 mps 637 mmHg 86%
    Show more